Temp
58 49 45 51 52 56 54 51 50 54 61 55 53 54 59 62 62 62 63 63 64 65 70 68 69 67 65 65 66 67 67 65 67 67 67 67 68 68 70 74 75 72 72 75
51 45 57 60 60 56 54 50 49 54 60 57 55 54 60 60 61 62 64 64 63 63 65 70 65 63 65 64 64 64 65 64 63 64 63 64 66 68 68 71 74 75 75 74
48 54 64 61 58 56 54 50 49 50 56 55 52 47 52 58 61 64 64 64 65 65 64 64 64 62 61 61 61 61 61 63 63 63 63 63 64 66 68 68 71 73 75 74
52 60 60 57 55 56 47 58 58 55 47 39 50 39 47 54 57 60 64 63 63 64 68 65 67 60 59 60 61 61 62 62 63 63 62 61 61 61 62 65 70 72 74 74
53 55 55 53 56 60 53 60 56 54 46 41 44 39 43 52 53 58 61 62 64 67 68 64 67 63 64 62 61 61 60 60 61 61 61 60 59 59 61 63 64 67 69 74
57 62 59 58 62 61 62 54 50 46 41 34 41 41 45 48 53 55 60 61 63 66 68 65 65 64 62 64 61 59 59 59 60 60 59 59 59 59 58 59 61 63 66 67
55 56 62 63 54 58 54 42 37 32 32 34 45 41 46 52 57 59 59 61 62 60 58 62 62 62 62 61 60 60 59 59 59 60 60 59 58 57 58 58 59 59 61 65
43 43 56 64 57 50 49 48 37 28 27 36 45 35 46 56 59 61 62 61 61 64 67 62 64 64 64 64 61 62 60 60 59 59 59 60 59 59 59 59 59 59 60 63
41 44 60 62 63 59 49 44 53 43 39 28 33 41 50 57 59 59 60 61 59 64 67 66 63 64 66 62 60 61 62 63 61 62 61 59 60 59 59 59 59 59 59 64
46 38 55 59 61 61 55 56 41 36 28 26 32 35 38 49 52 54 53 52 53 55 61 63 64 64 63 60 61 62 64 64 64 64 63 63 62 61 61 60 59 59 60 61
48 42 45 52 48 46 47 44 43 40 33 29 26 30 49 47 50 51 50 52 49 52 56 59 58 61 59 60 61 63 63 64 65 62 63 62 62 62 59 59 60 60 60 60
51 43 37 43 53 57 52 42 38 29 28 33 31 32 52 51 52 52 52 55 54 62 58 59 57 59 57 58 59 59 63 65 67 65 65 64 64 60 60 59 59 60 60 61
48 37 30 35 43 47 42 44 40 36 34 27 22 31 53 53 53 55 53 57 57 58 58 59 60 58 59 60 59 60 60 63 66 66 65 64 63 61 61 62 61 59 60 61
53 42 37 32 37 40 38 42 44 39 30 31 33 37 46 50 50 51 52 55 56 55 59 61 62 61 62 64 68 64 68 64 64 64 64 63 63 63 64 63 61 61 60 60
46 35 40 42 43 43 41 41 42 38 40 32 39 38 45 50 48 50 53 53 54 56 58 58 58 57 59 61 64 63 62 61 60 60 62 63 64 63 63 62 62 61 59 61
43 32 37 37 42 42 39 43 43 44 44 38 39 39 43 47 48 48 50 53 55 57 56 57 57 57 58 58 59 61 61 60 60 59 58 59 58 59 60 62 61 59 59 58
39 35 31 28 39 38 30 38 42 43 42 39 34 39 45 45 46 48 49 51 53 54 55 55 55 56 56 57 58 56 57 58 57 58 59 60 59 58 58 60 60 59 59 59
38 34 31 26 30 21 38 46 46 42 43 43 41 41 43 45 49 51 54 47 48 50 52 53 53 53 53 54 55 55 55 56 57 58 60 62 61 61 61 60 60 59 59 58
43 35 31 27 21 34 40 42 41 39 38 43 42 44 46 48 47 47 53 50 49 50 51 53 55 56 55 55 55 54 54 53 54 57 59 62 63 63 63 59 59 61 59 57
41 36 30 23 23 19 37 44 47 45 32 43 42 41 39 41 32 40 47 49 48 49 50 51 53 54 55 56 54 51 51 52 54 57 58 61 62 62 62 61 59 61 60 59
31 28 24 26 25 32 42 44 49 32 31 40 41 39 38 36 40 44 47 48 49 48 48 49 50 50 53 52 54 52 53 52 55 56 58 59 58 57 58 59 60 61 61 59
30 31 27 31 29 26 45 44 34 38 39 40 40 42 41 43 45 46 45 45 47 45 46 48 48 49 52 53 52 51 51 54 54 54 54 54 56 57 58 57 59 61 62 60
31 37 31 34 30 40 44 40 41 40 37 38 40 44 44 43 43 43 42 44 43 45 47 48 47 47 49 51 51 49 51 53 53 52 52 53 54 54 55 54 54 55 58 59
41 43 37 35 40 38 42 44 46 44 41 42 45 44 43 41 43 41 42 43 43 43 43 46 46 45 46 48 50 50 51 52 51 48 48 48 48 48 50 51 51 50 52 56
37 40 36 35 38 41 44 44 43 43 43 44 45 43 42 42 39 40 40 41 42 42 43 44 43 44 45 47 48 49 50 49 48 47 48 47 48 48 48 49 50 51 52 54
38 34 27 27 36 38 39 43 44 40 41 43 42 41 42 39 37 39 39 40 40 41 42 42 43 44 45 47 48 50 51 50 48 47 48 49 49 50 50 50 50 48 50 49
MSLP
1009.70 1010.63 1010.77 1010.40 1010.64 1010.47 1010.52 1010.28 1009.75 1008.87 1008.10 1007.64 1007.73 1006.91 1006.37 1005.97 1005.56 1005.21 1005.11 1005.03 1004.71 1004.70 1004.31 1004.46 1004.63 1004.45 1004.80 1005.30 1005.67 1006.05 1006.68 1007.16 1007.34 1007.60 1007.93 1008.12 1007.97 1007.87 1008.15 1007.62 1008.14 1008.55 1009.23 1009.30
1010.47 1010.53 1009.70 1009.60 1009.63 1009.81 1009.66 1009.55 1009.05 1008.34 1007.83 1007.61 1007.32 1006.86 1006.38 1006.21 1005.75 1005.19 1005.00 1004.88 1004.75 1004.54 1004.38 1004.31 1005.01 1005.01 1004.91 1005.02 1005.20 1005.75 1006.35 1006.87 1007.31 1007.48 1007.89 1007.94 1007.85 1007.79 1007.82 1007.62 1007.85 1007.91 1007.53 1008.59
1010.29 1009.52 1008.86 1009.03 1008.83 1008.75 1008.45 1008.43 1008.34 1008.28 1007.94 1007.75 1007.62 1007.15 1006.50 1005.96 1005.61 1005.30 1004.93 1004.62 1004.41 1004.23 1004.12 1004.27 1004.59 1005.08 1005.23 1005.31 1005.41 1005.73 1006.24 1006.48 1006.93 1007.38 1007.63 1007.87 1007.88 1008.07 1008.09 1008.14 1007.73 1007.37 1007.45 1006.46
1009.34 1008.52 1008.49 1008.19 1008.03 1007.92 1007.79 1007.53 1007.59 1007.86 1008.35 1008.63 1008.03 1006.63 1006.83 1006.05 1005.35 1005.10 1004.65 1004.31 1003.95 1003.79 1003.47 1003.54 1003.93 1004.68 1005.08 1005.41 1005.56 1005.84 1006.24 1006.63 1006.84 1006.95 1007.60 1008.18 1008.53 1008.72 1008.79 1008.75 1008.27 1007.89 1007.27 1007.43
1008.14 1008.02 1007.88 1007.62 1007.21 1007.12 1007.07 1006.93 1007.48 1007.79 1008.36 1008.75 1008.52 1007.61 1006.40 1006.13 1005.51 1004.65 1003.99 1003.56 1003.05 1002.91 1002.41 1002.47 1002.91 1003.36 1004.32 1004.95 1005.16 1005.64 1006.10 1006.49 1006.73 1007.08 1007.53 1008.09 1008.62 1008.74 1008.73 1008.79 1008.61 1008.30 1007.98 1007.79
1007.31 1006.79 1007.00 1006.49 1006.26 1006.41 1006.41 1006.94 1007.35 1007.93 1008.77 1009.08 1008.72 1007.53 1006.03 1005.98 1004.98 1004.39 1003.66 1003.25 1002.75 1002.17 1001.14 1001.23 1002.02 1002.95 1003.86 1004.25 1004.78 1005.48 1006.12 1006.49 1006.71 1007.13 1007.54 1007.93 1008.23 1008.53 1008.79 1008.84 1008.90 1008.77 1008.61 1008.53
1006.69 1006.46 1006.01 1005.90 1006.02 1006.22 1006.62 1007.44 1008.13 1008.73 1009.39 1008.47 1008.42 1007.35 1004.97 1004.93 1004.44 1003.89 1003.22 1002.60 1002.20 1001.84 1001.09 1000.47 1001.85 1002.81 1003.44 1003.95 1004.60 1005.17 1005.65 1006.24 1006.67 1007.09 1007.37 1007.75 1008.17 1008.53 1008.75 1008.74 1008.81 1008.75 1008.73 1008.54
1007.05 1006.46 1005.77 1005.33 1005.70 1006.10 1006.44 1007.25 1008.37 1008.35 1009.27 1008.72 1008.42 1006.73 1004.62 1003.89 1003.47 1003.11 1002.83 1002.37 1001.93 1001.77 1001.87 1002.86 1002.34 1002.48 1003.07 1003.58 1004.03 1004.44 1005.01 1005.69 1006.14 1006.52 1006.80 1006.94 1007.40 1007.89 1008.21 1008.46 1008.74 1008.77 1008.53 1008.25
1007.37 1006.62 1005.99 1005.48 1005.33 1005.83 1006.03 1006.79 1007.41 1008.60 1009.70 1009.80 1008.81 1007.09 1005.33 1004.37 1003.47 1003.11 1002.33 1002.28 1001.88 1001.20 1001.65 1003.31 1003.79 1003.49 1003.19 1003.45 1003.63 1003.93 1004.51 1004.92 1005.26 1005.55 1005.91 1006.28 1006.49 1007.02 1007.22 1007.26 1007.37 1007.65 1007.93 1008.01
1007.29 1006.76 1006.06 1005.80 1005.61 1005.72 1006.21 1006.83 1007.89 1009.19 1010.55 1010.49 1009.38 1008.11 1006.27 1004.87 1004.17 1003.71 1003.13 1002.58 1002.37 1002.35 1002.71 1003.45 1003.75 1003.58 1003.22 1003.32 1003.32 1003.61 1003.93 1004.24 1004.35 1004.59 1004.88 1005.19 1005.49 1005.93 1006.14 1006.35 1006.80 1006.97 1007.03 1007.33
1007.29 1007.37 1007.05 1006.91 1006.63 1006.44 1006.93 1007.66 1009.21 1010.34 1011.29 1011.10 1010.24 1008.33 1006.54 1005.57 1005.49 1004.65 1004.29 1003.51 1003.18 1002.74 1002.35 1003.22 1003.34 1003.60 1003.65 1003.67 1002.63 1002.76 1003.12 1003.33 1003.59 1003.83 1004.04 1004.37 1004.73 1005.03 1005.41 1005.85 1006.14 1006.33 1006.43 1006.67
1007.81 1008.11 1008.03 1007.68 1007.12 1006.80 1007.17 1008.46 1009.66 1010.50 1011.60 1011.68 1011.13 1008.94 1007.13 1006.53 1006.13 1005.75 1004.90 1003.33 1002.84 1002.47 1002.14 1002.32 1002.45 1003.26 1003.53 1003.41 1003.02 1002.51 1002.15 1002.51 1002.63 1002.76 1003.24 1003.61 1003.93 1004.21 1004.69 1005.31 1005.48 1005.48 1005.72 1005.81
1008.63 1009.11 1009.20 1008.45 1007.94 1007.87 1008.22 1009.09 1009.86 1010.82 1011.45 1011.39 1010.77 1008.41 1006.79 1005.69 1006.10 1005.57 1005.16 1003.53 1003.21 1002.45 1002.11 1001.84 1001.71 1002.03 1002.40 1002.29 1002.24 1002.10 1002.51 1001.56 1001.73 1002.09 1002.37 1002.79 1003.09 1003.38 1003.69 1004.01 1004.21 1004.63 1004.76 1004.75
1009.52 1009.85 1010.05 1009.83 1009.61 1009.57 1009.71 1009.53 1009.89 1010.52 1011.01 1010.43 1009.64 1008.07 1007.02 1005.87 1005.80 1005.37 1004.79 1003.71 1002.82 1002.47 1001.99 1001.40 1001.07 1001.40 1000.80 1001.20 1001.27 1000.98 1001.40 1002.01 1000.82 1001.09 1001.45 1001.82 1002.12 1002.28 1002.51 1002.78 1003.15 1003.47 1003.69 1004.21
1010.17 1010.38 1010.50 1010.28 1010.05 1009.82 1009.54 1009.40 1009.38 1009.56 1009.34 1009.53 1008.41 1007.74 1006.65 1006.03 1005.98 1005.43 1004.83 1003.60 1003.07 1002.31 1002.21 1001.94 1001.77 1001.61 1001.61 1001.46 1000.68 1001.07 1001.47 1000.86 1000.76 1000.72 1000.57 1000.64 1000.83 1001.10 1001.53 1001.96 1002.23 1002.35 1002.66 1003.05
1010.53 1010.89 1010.98 1010.56 1010.37 1009.84 1009.17 1008.59 1008.34 1008.29 1008.19 1008.13 1008.07 1007.30 1006.83 1005.97 1005.61 1005.57 1004.89 1004.36 1003.74 1002.94 1002.60 1002.48 1002.27 1002.00 1002.07 1001.92 1002.11 1001.28 1001.51 1001.08 1000.47 1000.62 1000.68 1000.64 1000.83 1000.75 1000.87 1001.21 1001.45 1001.47 1001.82 1002.21
1010.91 1011.13 1011.70 1011.33 1010.42 1009.92 1009.09 1008.00 1007.59 1007.49 1007.83 1008.23 1008.29 1008.11 1007.63 1006.79 1006.51 1005.90 1005.30 1004.77 1004.32 1003.93 1003.23 1002.76 1002.35 1002.17 1001.75 1001.76 1001.62 1001.28 1000.91 1000.38 1000.32 1000.25 1000.11 1000.13 1000.15 1000.35 1000.53 1000.77 1000.79 1000.83 1001.11 1001.39
1010.60 1011.38 1012.05 1011.92 1011.20 1010.35 1008.77 1008.23 1007.78 1008.07 1008.22 1008.27 1008.50 1008.38 1007.98 1007.46 1006.61 1005.83 1005.23 1005.05 1004.85 1004.45 1003.99 1003.41 1002.64 1002.10 1001.77 1001.40 1001.15 1000.78 1000.34 1000.12 999.87 999.71 999.62 999.38 999.40 999.34 999.37 999.60 999.81 999.95 1000.15 1000.45
1010.10 1011.31 1012.21 1012.56 1012.23 1010.37 1008.78 1008.95 1008.85 1008.74 1008.98 1009.24 1009.15 1008.81 1008.24 1007.72 1006.95 1005.33 1005.18 1005.07 1004.87 1004.50 1003.93 1003.41 1002.81 1002.01 1001.28 1000.72 1000.18 999.94 999.68 999.55 999.26 998.90 998.65 998.36 998.30 998.11 998.07 998.20 998.29 998.57 999.15 999.46
1010.13 1010.93 1012.09 1012.57 1012.42 1010.95 1009.72 1009.25 1008.89 1008.63 1009.13 1009.41 1009.39 1009.37 1008.84 1008.05 1007.11 1005.47 1005.58 1005.40 1004.51 1004.13 1003.64 1002.87 1002.19 1001.54 1001.03 1000.21 999.64 999.18 998.85 998.67 998.28 998.11 997.77 997.53 997.33 997.08 996.87 996.81 997.04 997.13 997.55 997.96
1010.61 1011.34 1012.11 1012.41 1012.09 1010.79 1010.20 1009.90 1009.05 1009.47 1010.29 1009.59 1009.72 1009.36 1008.86 1008.36 1007.72 1005.96 1005.29 1004.47 1004.19 1003.53 1002.91 1002.41 1001.64 1000.83 1000.00 999.45 999.16 998.59 998.05 997.50 997.27 996.99 996.61 996.22 996.03 995.87 995.74 995.59 995.69 995.84 996.15 996.55
1010.67 1011.39 1011.93 1011.94 1011.52 1010.95 1010.47 1009.93 1010.29 1010.63 1010.31 1010.19 1009.74 1009.09 1008.31 1007.61 1006.63 1005.79 1005.13 1004.27 1003.33 1003.13 1002.17 1001.33 1000.38 999.67 999.22 998.67 998.27 997.26 996.54 996.22 995.96 995.67 995.39 995.01 994.65 994.46 994.29 994.25 994.26 994.48 994.70 994.87
1010.67 1011.08 1011.61 1011.54 1010.84 1010.48 1010.31 1010.04 1010.49 1010.64 1010.53 1009.96 1009.45 1008.55 1007.72 1006.82 1005.83 1005.16 1004.32 1003.28 1002.71 1002.14 1000.97 1000.51 999.99 999.06 998.37 997.66 997.19 996.41 995.47 995.29 994.71 994.27 993.85 993.39 993.00 992.67 992.61 992.75 992.85 992.99 993.11 993.11
1010.91 1010.71 1011.13 1011.30 1010.83 1010.49 1010.10 1010.24 1010.42 1010.53 1010.15 1009.53 1008.69 1007.82 1007.21 1006.08 1005.02 1004.23 1003.36 1002.41 1002.06 1001.31 1000.67 1000.00 999.15 998.29 997.30 996.54 996.03 995.33 994.43 993.89 993.52 992.88 991.98 991.46 990.94 990.77 990.88 990.88 990.77 991.21 991.33 991.34
1011.51 1011.26 1011.66 1011.46 1010.91 1010.67 1009.65 1009.96 1010.26 1009.77 1009.29 1008.52 1007.91 1007.28 1006.19 1005.09 1004.69 1004.06 1002.67 1001.95 1001.31 1000.74 1000.08 999.32 998.47 997.30 996.17 995.53 994.77 993.83 993.03 992.56 992.04 991.33 990.06 989.23 988.45 987.61 987.39 987.53 987.76 988.21 988.73 989.60
1011.66 1011.77 1012.15 1012.08 1011.65 1011.57 1010.57 1010.08 1009.91 1009.44 1008.73 1007.93 1007.01 1006.05 1005.41 1005.27 1004.16 1003.29 1002.33 1001.46 1001.08 1000.07 999.23 998.35 997.37 996.15 995.06 994.19 993.07 991.88 991.17 990.81 990.04 988.75 987.51 986.35 985.48 984.83 984.16 983.89 984.21 985.16 986.47 987.93
Wind_Speed
5 2 6 13 10 12 8 8 11 6 6 3 5 10 11 8 7 7 7 6 7 6 7 5 7 7 9 8 8 9 9 4 2 2 3 2 3 2 1 4 19 3 6 7
4 6 15 10 13 11 12 12 7 6 5 5 10 14 12 6 7 6 7 8 9 6 6 8 6 6 12 12 10 9 9 6 4 3 2 2 1 1 2 1 4 7 13 7
8 10 9 10 13 13 12 7 5 6 5 4 4 7 7 5 5 6 7 8 9 11 11 9 10 10 6 8 8 8 7 8 7 5 3 2 3 3 3 3 4 3 2 9
8 10 7 8 6 4 5 7 9 6 2 5 2 15 5 9 12 7 10 10 9 11 13 10 15 10 9 8 8 8 8 8 5 5 4 3 3 3 2 2 4 6 5 4
11 6 9 10 9 9 12 10 11 10 6 5 5 11 4 5 15 18 12 11 12 13 15 12 18 17 13 11 10 9 9 8 6 5 5 4 3 2 2 2 4 5 7 8
13 6 6 11 13 9 12 6 4 2 2 7 8 9 10 8 12 7 8 8 10 15 18 10 15 17 13 11 9 8 9 7 8 7 7 6 6 4 3 3 3 4 4 4
14 16 11 9 7 9 7 3 9 7 5 14 9 10 15 7 7 13 13 9 8 10 5 15 19 16 14 13 11 10 10 8 8 9 8 9 8 7 7 6 4 5 3 3
5 9 10 4 5 8 5 7 5 8 7 14 3 8 12 7 10 12 8 8 3 7 8 7 9 12 14 14 12 11 10 8 10 9 10 9 9 6 7 7 5 5 4 4
4 5 3 5 5 2 3 5 6 8 3 1 5 7 9 15 16 10 15 10 5 7 5 4 6 7 14 11 11 12 12 11 10 13 10 9 9 8 7 8 6 4 5 4
3 6 3 5 7 7 5 2 5 3 3 6 4 6 10 13 5 5 7 6 5 3 12 7 2 10 9 8 9 11 14 16 15 14 11 10 11 10 9 7 8 8 7 6
4 2 4 11 2 2 4 0 2 3 5 4 3 6 4 6 8 9 5 3 1 2 6 5 6 7 4 9 10 14 13 15 14 12 12 11 11 11 7 7 7 7 6 7
2 4 5 9 12 16 4 5 4 5 5 3 3 5 12 8 9 10 18 8 6 6 8 6 2 3 5 8 7 9 13 15 16 14 13 14 13 9 8 8 9 9 8 7
2 3 5 6 6 6 5 2 3 3 3 6 3 6 5 12 12 19 13 17 10 9 8 7 6 5 3 6 7 6 9 13 14 14 14 13 12 11 12 12 10 8 8 8
8 4 8 9 7 2 6 14 8 6 3 7 11 14 15 19 5 8 11 17 17 9 8 9 8 6 3 5 12 8 14 13 13 14 14 14 15 14 14 14 12 12 9 7
4 4 3 8 8 9 11 13 13 13 13 9 15 11 15 10 5 9 9 8 9 8 3 5 5 5 8 8 7 8 7 4 7 7 12 16 16 15 14 13 13 11 9 9
2 5 3 13 11 12 15 15 13 12 12 5 8 12 3 4 3 6 8 9 10 5 5 4 4 4 5 5 6 5 7 7 2 2 5 6 4 6 10 14 14 10 9 8
4 5 2 5 5 6 6 7 4 5 3 4 4 5 9 10 10 10 10 9 5 6 7 7 5 6 6 7 7 7 8 6 6 7 7 7 7 7 9 12 12 12 12 10
5 5 4 4 4 2 4 6 5 4 2 2 2 6 8 11 13 14 11 5 8 10 12 11 9 7 8 8 8 8 7 7 7 9 10 10 9 11 12 14 15 14 13 15
11 5 1 2 3 7 2 5 4 4 0 11 10 12 13 13 15 16 6 12 15 15 12 12 13 15 13 10 10 9 9 8 8 11 12 14 15 16 15 15 16 15 13 14
5 5 5 3 2 4 1 9 11 6 6 11 11 9 11 13 11 12 13 18 17 18 17 18 18 14 16 17 12 9 7 8 11 12 13 14 15 17 17 15 14 15 15 16
2 3 4 2 4 5 7 12 14 3 5 15 12 10 13 12 12 20 22 20 21 22 21 23 21 20 19 9 14 15 14 16 15 16 18 20 17 15 15 12 11 12 15 15
4 2 2 1 3 5 3 6 1 3 7 10 13 16 16 19 20 19 21 26 20 23 22 21 18 16 17 17 17 20 20 17 14 16 16 15 16 14 15 19 19 19 19 17
3 4 4 5 6 2 4 3 2 3 9 9 14 18 17 22 21 20 23 22 19 21 19 16 17 20 18 16 16 20 20 18 16 13 15 17 19 19 19 19 19 17 20 19
5 4 2 5 1 6 7 2 5 9 12 15 18 16 20 25 21 24 23 18 18 18 19 17 17 18 19 18 18 19 19 19 19 20 21 19 19 20 21 17 16 17 16 18
3 4 3 5 4 12 3 13 14 18 18 17 17 22 24 19 20 22 20 19 17 18 17 17 17 18 20 19 19 20 20 18 18 19 21 21 19 23 22 22 20 20 22 17
1 3 3 5 4 6 13 15 19 18 18 22 21 25 18 21 20 19 19 18 16 17 17 17 18 19 20 19 20 21 19 17 18 20 19 18 16 15 15 15 19 34 29 31
Wind_Direction
286 104 233 243 206 234 249 260 264 259 243 321 283 271 289 295 319 292 264 269 270 248 265 204 219 170 148 153 154 163 148 122 126 116 156 173 186 184 255 162 183 144 244 214
349 248 249 245 257 231 240 235 249 260 256 295 287 284 286 271 272 237 253 277 264 261 204 208 238 201 174 169 159 149 142 136 123 116 114 94 12 289 268 265 220 190 171 183
206 248 275 253 260 261 254 221 232 244 292 323 296 294 298 296 256 270 269 247 267 264 254 209 184 208 185 159 153 134 129 133 131 128 86 37 45 33 6 329 315 226 182 123
236 253 258 300 284 262 274 243 240 237 165 251 182 283 262 287 294 264 273 275 259 255 254 221 201 181 177 160 142 128 131 126 112 114 111 123 154 160 232 317 300 295 187 167
237 252 272 287 266 278 271 266 243 240 224 141 243 270 217 299 288 285 282 270 266 270 253 221 199 180 160 158 152 154 148 147 147 136 144 146 177 210 258 272 289 283 313 284
243 223 181 240 265 258 264 297 282 339 131 245 215 240 255 255 262 257 258 265 276 303 263 223 181 157 159 158 152 148 152 169 162 162 169 178 204 226 232 245 236 250 266 276
247 253 251 245 261 307 281 339 284 285 286 264 206 248 262 231 260 242 255 270 308 9 326 151 158 160 162 169 166 166 166 174 176 178 180 186 194 200 220 245 258 274 255 247
215 279 218 194 193 205 236 195 224 261 270 284 233 247 263 227 235 250 252 250 123 73 43 346 152 161 168 179 176 171 173 178 182 184 199 193 194 189 194 201 206 225 241 256
252 239 313 280 299 303 282 260 247 268 163 351 233 292 294 269 273 292 259 211 207 154 131 182 273 233 191 188 180 176 181 199 190 197 202 192 192 200 202 213 210 211 224 235
249 287 107 325 313 296 234 295 312 353 301 245 248 276 261 298 319 343 14 17 61 88 83 13 261 229 207 202 191 192 193 196 204 206 201 198 198 200 206 200 205 207 221 225
335 207 324 339 282 263 323 246 86 133 165 246 283 245 279 1 311 324 266 292 157 58 80 148 106 5 340 293 199 196 196 200 205 202 202 196 201 202 193 193 215 216 220 228
8 290 279 265 253 257 256 154 147 136 209 221 282 258 265 305 309 326 302 233 239 232 174 181 169 198 277 285 253 243 202 205 211 209 202 201 205 200 192 196 202 207 211 222
67 309 327 318 340 13 69 170 142 80 87 200 200 262 280 291 323 309 310 298 278 230 234 217 181 176 291 293 253 214 256 210 217 213 207 211 211 199 202 213 212 194 202 210
2 238 233 265 256 259 292 293 279 203 210 268 245 276 284 288 262 268 291 298 269 260 241 242 240 233 182 264 290 299 295 259 217 208 208 209 211 210 208 209 205 202 192 190
215 252 265 276 280 282 275 272 267 261 249 225 278 260 272 273 247 270 267 312 290 266 334 13 344 332 266 282 294 300 250 261 227 224 209 212 213 208 208 211 215 206 189 200
193 252 247 276 265 261 272 276 275 274 274 281 293 287 357 277 320 285 302 302 300 355 41 350 354 349 338 319 280 275 283 278 245 244 240 246 252 241 213 213 216 211 210 202
214 184 155 264 260 282 292 266 236 242 58 253 270 335 327 340 326 323 308 326 6 331 324 307 286 273 273 261 253 265 276 285 270 260 242 234 236 219 213 220 215 213 212 216
209 149 157 264 21 296 230 12 20 69 71 53 22 332 329 318 314 307 306 358 338 338 326 314 300 283 254 258 265 270 272 262 255 254 254 254 233 223 214 210 218 219 209 211
203 146 220 199 190 278 4 31 341 331 142 28 7 332 321 330 312 293 296 342 327 315 303 295 295 288 285 278 267 252 253 245 248 258 260 257 252 250 239 220 217 221 215 212
83 87 138 90 145 249 3 337 323 301 243 25 359 326 321 330 306 288 320 309 303 304 304 307 303 293 291 277 260 257 253 247 253 255 253 257 256 252 245 234 222 224 220 216
28 26 153 190 231 286 25 328 305 274 302 332 331 315 309 299 281 292 300 300 298 295 301 297 288 282 282 278 289 278 273 268 270 269 266 261 246 236 238 237 240 234 223 222
141 190 230 274 245 257 358 316 120 274 299 299 299 306 293 298 293 295 301 294 296 297 290 283 282 291 293 287 281 274 270 270 268 269 262 259 253 245 243 240 241 243 243 227
74 165 213 190 226 140 285 206 147 231 275 290 296 295 310 305 290 297 296 292 297 293 288 292 295 291 287 283 282 280 278 275 266 263 262 258 253 248 244 243 242 241 238 235
331 27 74 4 137 322 333 232 328 318 304 301 295 303 306 301 300 303 297 291 296 296 294 293 294 291 287 280 279 274 274 272 270 265 259 255 252 250 247 238 229 230 231 229
228 10 355 270 309 328 321 336 320 312 308 300 309 309 298 298 306 298 299 300 294 295 293 290 288 286 284 286 281 275 271 268 268 266 262 257 246 240 242 229 226 220 219 218
286 184 139 248 303 280 289 308 312 307 303 311 308 310 314 308 296 298 295 296 299 296 294 291 287 284 284 285 283 281 277 271 263 263 264 258 257 248 239 233 222 215 209 207